Location: Newark
(47.5833°N, 8.1500°E)
Time: 08:14:00
(UTC+00:00)

Tiros 1 despin weight - Pass Details

Date: 05 November 2020
Orbit: 593 x 642 km, 48.2° (Epoch: 26 November)

Event Time Altitude Azimuth Distance (km) Brightness Sun altitude
Rises 02:19:48 0° 285° (WNW) 2,856 - -39.9°
Reaches altitude 10° 02:22:15 10° 277° (W) 1,943 - -39.5°
Maximum altitude 02:26:18 35° 211° (SSW) 970 - -38.9°
Drops below altitude 10° 02:30:18 10° 146° (SE) 1,920 - -38.3°
Sets 02:32:42 0° 137° (SE) 2,816 - -37.9°
